Location: Monteux
(44.0348°N, 4.9972°E)
Time: 17:04:04
(UTC+00:00)

SAR-Lupe-1 - Pass Details

Date: 30 November 2020
Orbit: 480 x 485 km, 98.2° (Epoch: 26 November)

Event Time Altitude Azimuth Distance (km) Brightness Sun altitude
Exits shadow 18:11:42 53° 335° (NNW) 607 4.5 -22.5°
Maximum altitude 18:12:18 64° 287° (WNW) 543 4.4 -22.6°
Drops below altitude 10° 18:15:50 10° 205° (SSW) 1,664 7.2 -23.2°
Sets 18:17:54 0° 202° (SSW) 2,539 8.1 -23.6°
